View from above orbital plane
|
View from above satellite
|
Ground track
|
The orbit data is extracted from the following two-line orbital elements,
1 35495U 09034C 21102.48850868 .00002082 00000-0 48512-3 0 9990
2 35495 49.5956 234.1586 5011449 147.3697 257.1379 5.58291957235797
Epoch (UTC): | 12 April 2021 11:43:27 |
Eccentricity: | 0.5011449 |
inclination: | 49.5956° |
perigee height: | 317 km |
apogee height: | 13770 km |
right ascension of ascending node: | 234.1586° |
argument of perigee: | 147.3697° |
revolutions per day: | 5.58291957 |
mean anomaly at epoch: | 257.1379° |
orbit number at epoch: | 23579 |
The dashed part of the orbit path shows where the satellite is in the earth's shadow,
|
|